Погода в Городне

Украина / Черниговская область     51°53′34″N   31°35′40″E
темп.,
°C
ветер,
м/с
пор.,
м/с
влажн.,
%
обл.,
%
осадки,
мм/ч
давл.,
гПа
погр.,
м
4 марта, чт
чт423:00−1зюз49890 0.0 1020210
02:00−1зюз49860 0.0 1018229
05:00−3юз511940 0.0 1014221
08:00−1юз611941 0.0 1011341
11:00+2юз59980 0.0 1009417
14:00+5зюз5109718 0.0 1006711
17:00+4з41292100 0.1 1006416
20:00+1зсз4994100 0.2 1006482
5 марта, пт
пт523:000зсз488997 0.0 1008281
02:00−2зсз379688 0.0 1009217
05:00−3ссз359576 0.0 1010144
08:00−2с358785 0.0 1012248
11:000с237390 0.0 1013591
14:00+1ссз346495 0.0 1014991
17:00−1ссз2469100 0.0 1015125
20:00−2зсз2271100 0.0 101736
6 марта, сб
сб623:00−2ссз4976100 0.0 1018524
02:00−4ссз496986 0.0 1020487
05:00−5сз38660 0.0 1020470
08:00−4сз366113 0.0 1021532
11:00−2сз467384 0.0 1022757
14:00−1ссз456291 0.3 10221098
17:00−2ссз366171 0.0 1022555
20:00−4з367236 0.0 1024202
7 марта, вс
вс723:00−4з48730 0.0 1023360
02:00−4зюз511700 0.0 1021440
05:00−4юз7156265 0.0 1018680
08:00−2зюз9166683 0.0 10141044
11:000зюз101767100 0.0 10111289
14:00+2з91567100 0.0 10101409
17:00+1з71480100 0.0 10081071
20:000зюз7158295 0.1 1007948
8 марта, пн
пн823:000з9177993 0.0 10061277
02:00−2зсз6137396 0.4 10071288
05:00−3зсз6127076 0.0 10091057
08:00−4сз696970 0.0 10111028
11:00−2зсз5663100 0.0 10121115
14:00−1зсз4561100 0.1 10121154
17:00−2сз3475100 0.1 1012653
20:00−3сз1386100 0.3 1014268